SCP
0 0 -0 -0 -0 -1 -0 -0 -0 -0 -0 -0 -0 -0 -0 -0 0 0 -0 0 0 0 0 0 0 0 -0 -0 -0 0 0 0
-0 0 -0 -0 -0 -0 -0 -0 -0 -0 -0 -0 -0 -0 -0 -0 0 0 -0 -0 -0 0 -0 -0 -0 -0 -0 -0 -0 0 0 0
-0 -0 -0 -0 -0 -0 -0 -0 -0 -0 -0 -0 -0 -0 -0 -0 0 0 -0 -0 -0 -0 -0 -0 -0 -0 -0 -0 -0 0 0 0
-0 0 0 0 -0 -0 -0 -0 -0 0 -0 -0 0 0 0 0 0 -0 -0 -0 -0 -0 -0 -0 -0 -0 -0 -0 0 0 0 -0
0 0 0 0 0 0 0 -0 -0 0 0 0 0 0 0 -0 -0 -0 -0 -0 -0 -0 -0 -0 -0 -0 0 0 0 0 -0 -0
0 0 0 0 0 0 0 0 -0 -0 0 0 0 0 0 -0 -0 -0 -0 -0 -0 -0 -0 -0 -0 -0 -0 0 0 0 0 0
0 0 0 -0 -0 0 0 0 0 0 0 0 0 -0 -0 -0 -0 -0 -0 -0 -0 -0 -0 -0 -0 -0 0 0 0 0 0 0
-0 0 0 0 0 0 0 0 0 0 0 0 0 -0 -0 -0 -0 -0 -0 -0 -0 -0 -0 -0 -0 0 0 0 0 0 0 0
-0 -0 0 -0 0 0 0 0 0 0 0 -0 -0 -0 -0 -0 -0 -0 -0 -0 -0 -0 -0 -0 -0 0 0 0 0 0 0 0
-0 -0 0 -0 -0 0 0 0 0 0 0 -0 -0 -0 -0 -0 -0 -0 -0 -0 -0 -0 -0 -0 -0 0 0 0 0 0 0 0
-0 -0 -0 -0 -0 -0 -0 -0 -0 0 0 0 0 -0 -0 -0 -0 -0 -0 0 0 0 -0 0 -0 0 0 0 0 0 0 0
0 -0 -0 0 -0 -0 -0 -0 0 0 0 0 0 0 0 0 -0 -0 -0 0 0 0 0 0 0 0 0 0 0 0 -0 0
0 0 -0 0 0 0 0 0 0 0 0 0 0 0 0 0 0 0 0 0 0 0 0 0 0 0 0 0 0 0 0 0
1 0 0 0 0 0 0 0 0 0 0 0 0 0 0 0 0 0 0 0 0 0 0 0 0 0 0 0 0 0 0 0
1 1 1 0 0 0 0 0 0 0 0 0 0 0 0 0 0 0 0 0 0 0 0 0 0 0 0 1 1 1 0 0
0 0 0 1 1 0 0 1 1 0 0 0 0 0 1 0 0 0 0 0 0 0 0 0 0 0 0 0 0 0 0 0
0 0 0 0 0 0 0 1 1 1 1 0 0 0 0 0 0 0 0 0 0 1 1 0 0 0 0 0 0 0 0 0
0 0 0 0 0 0 0 0 1 1 0 0 0 0 0 0 0 0 0 0 0 0 0 1 1 0 1 0 0 0 0 0
0 0 0 0 0 0 0 0 0 0 0 0 0 0 0 0 0 0 0 0 0 -0 0 0 1 1 0 0 0 0 0 0
Wind_Speed_500mb
54 53 53 55 59 58 52 46 40 36 37 38 38 36 36 35 35 34 35 35 30 31 35 37 41 47 48 44 38 31 27 20
54 54 55 56 58 57 51 46 40 35 38 39 38 36 35 35 34 32 31 29 31 35 35 38 40 45 42 36 32 27 21 15
54 55 55 56 57 56 53 46 40 36 40 40 39 38 35 33 31 30 31 31 32 35 37 38 40 42 37 29 22 16 19 14
49 53 54 55 56 56 52 47 40 38 42 42 39 37 34 32 31 30 33 33 33 33 34 34 34 33 30 23 16 19 15 9
41 43 49 53 56 57 55 48 43 39 43 42 39 37 34 32 30 29 31 33 32 29 29 31 30 29 27 25 22 15 14 15
44 40 45 49 51 52 55 52 47 43 44 42 39 37 35 31 30 28 29 31 30 27 26 27 28 25 24 24 22 23 22 21
47 41 45 48 50 50 53 55 51 48 50 47 41 38 36 32 29 27 26 28 30 28 25 24 24 24 25 23 26 22 22 22
46 45 48 51 51 50 52 53 53 50 50 49 43 39 36 35 32 28 25 26 28 28 25 24 25 25 22 22 22 21 20 26
58 46 42 49 49 50 46 47 49 50 51 51 46 42 39 38 35 31 26 24 25 27 25 24 24 22 23 21 19 20 24 25
60 52 42 45 46 47 44 44 45 47 51 50 46 43 42 42 39 32 25 23 20 29 29 28 28 28 29 21 26 27 25 20
60 57 50 45 41 32 45 39 40 42 44 49 47 43 43 43 40 35 26 24 20 17 28 32 30 33 32 27 31 24 31 29
57 59 55 46 45 35 36 33 30 28 40 47 46 42 42 46 40 33 32 24 30 24 28 28 33 32 36 39 28 25 18 34
56 56 55 51 45 45 37 36 32 34 31 39 46 41 39 43 49 37 38 31 32 35 33 32 41 42 42 42 37 36 31 37
45 54 53 59 55 45 50 40 37 40 34 26 40 35 37 38 49 49 44 41 45 43 34 38 33 43 52 46 38 36 44 39
29 45 57 60 61 49 53 42 38 42 37 30 35 41 45 49 51 56 53 52 48 55 44 42 39 42 43 44 41 40 39 45
33 38 41 49 57 50 50 40 43 51 47 47 44 39 47 58 70 63 68 65 57 49 62 53 45 57 52 55 52 42 40 45
25 32 40 34 35 43 54 57 48 48 52 57 61 57 51 47 48 60 76 83 74 59 54 65 54 53 55 65 61 57 46 46
23 23 24 40 43 46 43 45 52 52 57 57 61 60 65 64 55 56 70 71 44 53 62 72 66 61 69 65 68 56 32 31
17 15 18 21 36 40 47 50 44 46 52 59 67 70 71 73 72 61 62 59 22 66 39 56 82 69 69 70 73 70 63 51
Wind_Direction_500mb
163 165 165 165 166 166 166 163 159 153 153 153 150 147 145 143 142 136 139 138 136 129 123 122 129 137 135 131 128 125 127 132
164 167 166 167 167 168 169 167 163 158 157 156 154 154 151 149 147 144 141 145 135 131 124 123 127 141 137 135 129 121 113 139
170 168 169 171 172 173 173 172 168 164 161 160 158 158 158 157 156 154 151 147 140 136 129 127 130 139 139 135 130 130 144 146
169 169 171 174 176 177 177 176 174 170 166 163 161 159 159 159 158 159 157 154 149 145 137 133 134 140 143 147 154 146 161 162
166 175 176 179 181 181 181 180 180 177 173 169 165 163 161 159 157 157 158 159 157 156 148 141 141 140 147 153 164 155 174 162
165 176 185 187 186 186 182 183 184 181 179 176 172 170 167 162 159 159 161 165 166 169 163 155 150 157 160 169 181 156 167 165
176 181 192 193 192 189 186 188 188 186 183 182 179 177 173 169 165 165 169 173 175 179 176 173 169 175 176 181 178 177 172 205
188 182 187 194 194 194 193 192 192 193 188 186 185 183 179 176 175 174 179 182 185 186 188 188 187 187 194 192 195 191 168 180
188 187 184 194 197 196 197 199 200 197 194 192 191 188 187 185 184 179 184 186 192 196 199 202 197 187 199 204 200 207 202 199
191 187 182 191 196 203 200 202 206 205 202 199 198 197 194 193 192 179 171 179 188 202 200 205 198 193 202 210 209 227 207 208
201 196 187 187 182 185 196 203 205 209 211 208 207 206 205 203 207 204 188 209 217 211 207 207 201 198 209 219 214 232 222 183
206 203 192 190 198 191 189 190 193 201 215 218 218 215 216 215 209 220 211 231 236 243 238 226 213 218 237 220 209 214 205 195
199 211 202 197 207 204 203 199 207 219 225 226 224 223 217 218 215 217 217 232 241 247 251 241 238 241 227 220 208 210 214 208
178 200 210 206 210 212 213 214 225 226 227 231 222 220 222 221 218 219 223 230 231 236 246 239 254 229 223 224 213 213 201 202
165 189 210 213 208 211 212 220 221 224 226 226 232 245 250 246 238 233 240 237 237 237 240 234 234 222 214 214 193 198 195 197
164 168 183 195 203 214 209 214 210 217 221 228 233 242 245 248 246 248 239 238 242 243 241 237 232 232 218 214 203 200 202 203
197 189 194 191 187 210 217 226 225 222 223 226 233 238 245 248 245 239 233 234 236 243 244 236 233 235 228 211 211 196 200 207
217 220 224 220 222 224 222 228 231 236 240 240 247 250 251 254 249 249 243 236 249 243 254 245 239 226 229 215 218 211 194 211
220 214 223 217 232 235 232 235 236 239 249 251 248 252 255 258 265 263 252 252 296 288 292 270 239 234 234 234 231 233 237 236
Wind_Speed_850mb
54 53 53 55 59 58 52 46 40 36 37 38 38 36 36 35 35 34 35 35 30 31 35 37 41 47 48 44 38 31 27 20
54 54 55 56 58 57 51 46 40 35 38 39 38 36 35 35 34 32 31 29 31 35 35 38 40 45 42 36 32 27 21 15
54 55 55 56 57 56 53 46 40 36 40 40 39 38 35 33 31 30 31 31 32 35 37 38 40 42 37 29 22 16 19 14
49 53 54 55 56 56 52 47 40 38 42 42 39 37 34 32 31 30 33 33 33 33 34 34 34 33 30 23 16 19 15 9
41 43 49 53 56 57 55 48 43 39 43 42 39 37 34 32 30 29 31 33 32 29 29 31 30 29 27 25 22 15 14 15
44 40 45 49 51 52 55 52 47 43 44 42 39 37 35 31 30 28 29 31 30 27 26 27 28 25 24 24 22 23 22 21
47 41 45 48 50 50 53 55 51 48 50 47 41 38 36 32 29 27 26 28 30 28 25 24 24 24 25 23 26 22 22 22
46 45 48 51 51 50 52 53 53 50 50 49 43 39 36 35 32 28 25 26 28 28 25 24 25 25 22 22 22 21 20 26
58 46 42 49 49 50 46 47 49 50 51 51 46 42 39 38 35 31 26 24 25 27 25 24 24 22 23 21 19 20 24 25
60 52 42 45 46 47 44 44 45 47 51 50 46 43 42 42 39 32 25 23 20 29 29 28 28 28 29 21 26 27 25 20
60 57 50 45 41 32 45 39 40 42 44 49 47 43 43 43 40 35 26 24 20 17 28 32 30 33 32 27 31 24 31 29
57 59 55 46 45 35 36 33 30 28 40 47 46 42 42 46 40 33 32 24 30 24 28 28 33 32 36 39 28 25 18 34
56 56 55 51 45 45 37 36 32 34 31 39 46 41 39 43 49 37 38 31 32 35 33 32 41 42 42 42 37 36 31 37
45 54 53 59 55 45 50 40 37 40 34 26 40 35 37 38 49 49 44 41 45 43 34 38 33 43 52 46 38 36 44 39
29 45 57 60 61 49 53 42 38 42 37 30 35 41 45 49 51 56 53 52 48 55 44 42 39 42 43 44 41 40 39 45
33 38 41 49 57 50 50 40 43 51 47 47 44 39 47 58 70 63 68 65 57 49 62 53 45 57 52 55 52 42 40 45
25 32 40 34 35 43 54 57 48 48 52 57 61 57 51 47 48 60 76 83 74 59 54 65 54 53 55 65 61 57 46 46
23 23 24 40 43 46 43 45 52 52 57 57 61 60 65 64 55 56 70 71 44 53 62 72 66 61 69 65 68 56 32 31
17 15 18 21 36 40 47 50 44 46 52 59 67 70 71 73 72 61 62 59 22 66 39 56 82 69 69 70 73 70 63 51
Wind_Direction_850mb
163 165 165 165 166 166 166 163 159 153 153 153 150 147 145 143 142 136 139 138 136 129 123 122 129 137 135 131 128 125 127 132
164 167 166 167 167 168 169 167 163 158 157 156 154 154 151 149 147 144 141 145 135 131 124 123 127 141 137 135 129 121 113 139
170 168 169 171 172 173 173 172 168 164 161 160 158 158 158 157 156 154 151 147 140 136 129 127 130 139 139 135 130 130 144 146
169 169 171 174 176 177 177 176 174 170 166 163 161 159 159 159 158 159 157 154 149 145 137 133 134 140 143 147 154 146 161 162
166 175 176 179 181 181 181 180 180 177 173 169 165 163 161 159 157 157 158 159 157 156 148 141 141 140 147 153 164 155 174 162
165 176 185 187 186 186 182 183 184 181 179 176 172 170 167 162 159 159 161 165 166 169 163 155 150 157 160 169 181 156 167 165
176 181 192 193 192 189 186 188 188 186 183 182 179 177 173 169 165 165 169 173 175 179 176 173 169 175 176 181 178 177 172 205
188 182 187 194 194 194 193 192 192 193 188 186 185 183 179 176 175 174 179 182 185 186 188 188 187 187 194 192 195 191 168 180
188 187 184 194 197 196 197 199 200 197 194 192 191 188 187 185 184 179 184 186 192 196 199 202 197 187 199 204 200 207 202 199
191 187 182 191 196 203 200 202 206 205 202 199 198 197 194 193 192 179 171 179 188 202 200 205 198 193 202 210 209 227 207 208
201 196 187 187 182 185 196 203 205 209 211 208 207 206 205 203 207 204 188 209 217 211 207 207 201 198 209 219 214 232 222 183
206 203 192 190 198 191 189 190 193 201 215 218 218 215 216 215 209 220 211 231 236 243 238 226 213 218 237 220 209 214 205 195
199 211 202 197 207 204 203 199 207 219 225 226 224 223 217 218 215 217 217 232 241 247 251 241 238 241 227 220 208 210 214 208
178 200 210 206 210 212 213 214 225 226 227 231 222 220 222 221 218 219 223 230 231 236 246 239 254 229 223 224 213 213 201 202
165 189 210 213 208 211 212 220 221 224 226 226 232 245 250 246 238 233 240 237 237 237 240 234 234 222 214 214 193 198 195 197
164 168 183 195 203 214 209 214 210 217 221 228 233 242 245 248 246 248 239 238 242 243 241 237 232 232 218 214 203 200 202 203
197 189 194 191 187 210 217 226 225 222 223 226 233 238 245 248 245 239 233 234 236 243 244 236 233 235 228 211 211 196 200 207
217 220 224 220 222 224 222 228 231 236 240 240 247 250 251 254 249 249 243 236 249 243 254 245 239 226 229 215 218 211 194 211
220 214 223 217 232 235 232 235 236 239 249 251 248 252 255 258 265 263 252 252 296 288 292 270 239 234 234 234 231 233 237 236